Tracking 19476 objects as of 17-Jan-2019
HD Live streaming from Space Station
objects crossing your sky now

METEOR 1-19

Track METEOR 1-19 now!
10-day predictions
METEOR 1-19 is classified as:


NORAD ID: 7490
Int'l Code: 1974-083A
Perigee: 844.8 km
Apogee: 888.2 km
Inclination: 81.2 °
Period: 102.1 minutes
Semi major axis: 7237 km
RCS: 4.6009 m2 (large)
Launch date: October 28, 1974
Source: Commonwealth of Independent States (former USSR) (CIS)
Launch site: PLESETSK MISSILE AND SPACE COMPLEX (PKMTR)
aabbcc
Your satellite tracking list
Your tracking list is empty




NASA's NSSDC Master Catalog

Two Line Element Set (TLE):
1  7490U 74083A   19016.84642495 -.00000027  00000-0 -22548-4 0  9997
2  7490  81.1883 271.3879 0029974 174.9691 185.1787 14.10011925273425
Source of the keplerian elements: AFSPC